TimeEST,TemperatureF,Dew PointF,Humidity,Sea Level PressureIn,VisibilityMPH,Wind Direction,Wind SpeedMPH,Gust SpeedMPH,PrecipitationIn,Events,Conditions,WindDirDegrees,DateUTC
12:05 AM,24.8,23.0,93,30.31,10.0,ESE,10.4,-,N/A,,Clear,110,2012-12-13 05:05:00
12:25 AM,24.8,23.0,93,30.30,10.0,East,10.4,-,N/A,,Clear,100,2012-12-13 05:25:00
12:45 AM,26.6,21.2,80,30.30,10.0,ESE,10.4,-,N/A,,Clear,110,2012-12-13 05:45:00
1:10 AM,24.8,21.2,86,30.28,10.0,East,9.2,-,N/A,,Clear,100,2012-12-13 06:10:00
1:30 AM,26.6,21.2,80,30.28,10.0,East,9.2,-,N/A,,Clear,90,2012-12-13 06:30:00
1:50 AM,24.8,21.2,86,30.28,10.0,East,8.1,-,N/A,,Clear,90,2012-12-13 06:50:00
2:10 AM,24.8,21.2,86,30.30,10.0,ESE,8.1,-,N/A,,Clear,110,2012-12-13 07:10:00
2:35 AM,23.0,21.2,93,30.31,10.0,ESE,10.4,-,N/A,,Clear,120,2012-12-13 07:35:00
2:55 AM,23.0,21.2,93,30.31,10.0,ESE,11.5,-,N/A,,Clear,120,2012-12-13 07:55:00
3:15 AM,24.8,21.2,86,30.30,10.0,ESE,10.4,-,N/A,,Clear,110,2012-12-13 08:15:00
3:35 AM,23.0,21.2,93,30.30,10.0,ESE,10.4,-,N/A,,Clear,110,2012-12-13 08:35:00
4:00 AM,23.0,21.2,93,30.30,10.0,ESE,11.5,-,N/A,,Clear,120,2012-12-13 09:00:00
4:20 AM,23.0,21.2,93,30.30,10.0,SE,11.5,-,N/A,,Clear,130,2012-12-13 09:20:00
4:40 AM,23.0,21.2,93,30.30,10.0,SE,12.7,-,N/A,,Clear,130,2012-12-13 09:40:00
5:00 AM,23.0,21.2,93,30.30,10.0,SE,12.7,-,N/A,,Clear,130,2012-12-13 10:00:00
5:25 AM,23.0,21.2,93,30.30,10.0,SE,12.7,-,N/A,,Clear,130,2012-12-13 10:25:00
5:45 AM,23.0,21.2,93,30.30,10.0,SE,9.2,-,N/A,,Clear,130,2012-12-13 10:45:00
6:05 AM,23.0,21.2,93,30.31,10.0,SE,10.4,-,N/A,,Clear,130,2012-12-13 11:05:00
6:30 AM,23.0,21.2,93,30.31,10.0,SE,11.5,-,N/A,,Clear,130,2012-12-13 11:30:00
6:50 AM,23.0,21.2,93,30.31,10.0,SE,12.7,-,N/A,,Clear,130,2012-12-13 11:50:00
7:10 AM,23.0,21.2,93,30.31,10.0,SE,12.7,-,N/A,,Clear,130,2012-12-13 12:10:00
7:30 AM,23.0,21.2,93,30.32,10.0,SE,11.5,-,N/A,,Clear,130,2012-12-13 12:30:00
7:50 AM,24.8,21.2,86,30.32,10.0,SE,10.4,-,N/A,,Clear,130,2012-12-13 12:50:00
8:15 AM,26.6,21.2,80,30.32,10.0,SE,11.5,-,N/A,,Clear,130,2012-12-13 13:15:00
8:35 AM,26.6,21.2,80,30.32,10.0,SE,12.7,-,N/A,,Clear,130,2012-12-13 13:35:00
8:55 AM,28.4,21.2,74,30.33,10.0,SE,11.5,-,N/A,,Clear,130,2012-12-13 13:55:00
9:15 AM,28.4,23.0,80,30.33,10.0,SE,16.1,19.6,N/A,,Clear,130,2012-12-13 14:15:00
9:40 AM,30.2,23.0,75,30.33,10.0,SE,13.8,-,N/A,,Clear,140,2012-12-13 14:40:00
10:00 AM,30.2,23.0,75,30.33,10.0,SE,13.8,-,N/A,,Clear,140,2012-12-13 15:00:00
10:20 AM,32.0,23.0,69,30.33,10.0,SE,13.8,18.4,N/A,,Clear,140,2012-12-13 15:20:00
10:40 AM,32.0,24.8,75,30.33,10.0,SE,13.8,-,N/A,,Clear,140,2012-12-13 15:40:00
11:05 AM,32.0,23.0,69,30.33,10.0,SE,12.7,17.3,N/A,,Clear,140,2012-12-13 16:05:00
11:25 AM,32.0,23.0,69,30.32,10.0,SSE,11.5,-,N/A,,Clear,150,2012-12-13 16:25:00
11:45 AM,33.8,24.8,70,30.32,10.0,SE,8.1,-,N/A,,Clear,130,2012-12-13 16:45:00
12:05 PM,33.8,23.0,65,30.31,10.0,SSE,6.9,-,N/A,,Clear,150,2012-12-13 17:05:00
1:10 PM,35.6,23.0,60,30.29,10.0,SSE,6.9,-,N/A,,Clear,150,2012-12-13 18:10:00
1:30 PM,35.6,21.2,56,30.29,10.0,SSW,5.8,-,N/A,,Clear,200,2012-12-13 18:30:00
1:55 PM,37.4,21.2,52,30.28,10.0,SE,8.1,-,N/A,,Clear,140,2012-12-13 18:55:00
2:15 PM,37.4,23.0,56,30.28,10.0,South,4.6,-,N/A,,Clear,170,2012-12-13 19:15:00
2:35 PM,37.4,21.2,52,30.27,10.0,SSE,5.8,-,N/A,,Clear,150,2012-12-13 19:35:00
2:55 PM,37.4,23.0,56,30.27,10.0,SSE,8.1,-,N/A,,Clear,150,2012-12-13 19:55:00
3:20 PM,37.4,21.2,52,30.27,10.0,SSE,5.8,-,N/A,,Clear,150,2012-12-13 20:20:00
3:40 PM,35.6,24.8,65,30.27,10.0,SE,6.9,-,N/A,,Clear,130,2012-12-13 20:40:00
4:00 PM,35.6,26.6,70,30.28,10.0,SE,4.6,-,N/A,,Clear,130,2012-12-13 21:00:00
4:20 PM,33.8,26.6,75,30.27,10.0,SE,5.8,-,N/A,,Clear,140,2012-12-13 21:20:00
4:45 PM,32.0,24.8,75,30.27,10.0,SE,5.8,-,N/A,,Clear,140,2012-12-13 21:45:00
5:05 PM,32.0,24.8,75,30.27,10.0,SE,6.9,-,N/A,,Clear,140,2012-12-13 22:05:00
5:25 PM,32.0,24.8,75,30.27,10.0,SSE,6.9,-,N/A,,Clear,150,2012-12-13 22:25:00
6:10 PM,30.2,23.0,75,30.26,10.0,SE,5.8,-,N/A,,Clear,140,2012-12-13 23:10:00
7:10 PM,32.0,23.0,69,30.27,10.0,South,3.5,-,N/A,,Clear,190,2012-12-14 00:10:00
7:35 PM,32.0,23.0,69,30.26,10.0,South,4.6,-,N/A,,Clear,170,2012-12-14 00:35:00
7:55 PM,32.0,23.0,69,30.26,10.0,South,4.6,-,N/A,,Clear,180,2012-12-14 00:55:00
8:15 PM,32.0,21.2,64,30.26,10.0,South,4.6,-,N/A,,Clear,190,2012-12-14 01:15:00
8:35 PM,32.0,21.2,64,30.25,10.0,South,6.9,-,N/A,,Clear,180,2012-12-14 01:35:00
8:55 PM,32.0,21.2,64,30.24,10.0,South,6.9,-,N/A,,Clear,180,2012-12-14 01:55:00
10:25 PM,30.2,21.2,69,30.24,10.0,SSW,5.8,-,N/A,,Clear,200,2012-12-14 03:25:00
10:45 PM,32.0,21.2,64,30.23,10.0,SSW,6.9,-,N/A,,Clear,210,2012-12-14 03:45:00
11:05 PM,32.0,19.4,60,30.23,10.0,SSW,8.1,-,N/A,,Clear,210,2012-12-14 04:05:00
11:50 PM,32.0,17.6,55,30.22,10.0,SW,6.9,-,N/A,,Clear,220,2012-12-14 04:50:00